Paso Robles, CA

4:37 PM PDT on September 25, 2017 (GMT -0700)
Paso Robles Municipal

Weather History for KPRB - December, 2012

Change the Weather History Date:

Saturday, December 8, 2012

  Actual Average Record
Temperature  
Mean Temperature 49 °F 47 °F  
Max Temperature 64 °F 60 °F 76 °F (1979)
Min Temperature 34 °F 34 °F 18 °F (1956)
Degree Days  
Heating Degree Days 16 18  
Month to date heating degree days 75 141  
Since 1 July heating degree days 499 690  
Cooling Degree Days 0 0  
Month to date cooling degree days 0 0  
Year to date cooling degree days 1147 927  
Moisture  
Dew Point 41 °F    
Average Humidity 76    
Maximum Humidity 100    
Minimum Humidity 52    
Precipitation  
Precipitation 0.00 in 0.06 in 0.25 in (1949)
Month to date precipitation 0.47 0.39  
Year to date precipitation 7.07 11.16  
Since 1 July precipitation 1.20  
Sea Level Pressure  
Sea Level Pressure 30.04 in    
Wind  
Wind Speed 4 mph (East)    
Max Wind Speed 14 mph    
Max Gust Speed 17 mph    
Visibility 9 miles    
Events      
T = Trace of Precipitation, MM = Missing Value Source: NWS Daily Summary

Daily Weather History Graph

Daily Weather History Graph

Search for Another Location

Airport or City:

Trip Planner

Search our weather history database for the weather conditions in past years. The results will help you decide how hot, cold, wet, or windy it might be!

Date:

Astronomy

Dec. 08, 2012 Rise Set
Actual Time 7:00 AM PST 4:49 PM PST
Civil Twilight 6:31 AM PST 5:17 PM PST
Nautical Twilight 6:00 AM PST 5:49 PM PST
Astronomical Twilight 5:29 AM PST 6:20 PM PST
Moon 1:39 AM PST (12/8) 1:14 PM PST (12/8)
Length of Visible Light 10h 45m
Length of Day
9h 48m
Waning Crescent, 27% of the Moon is Illuminated
Dec 8
Waning Crescent
Dec 13
New
Dec 19
First Quarter
Dec 28
Full
Jan 4
Last Quarter

Hourly Weather History & Observations

Time (PST) Temp. Windchill Dew Point Humidity Pressure Visibility Wind Dir Wind Speed Gust Speed Precip Events Conditions
12:53 AM 39.9 °F - 39.0 °F 97% 30.06 in 10.0 mi Calm Calm - N/A   Clear
1:53 AM 39.0 °F - 37.0 °F 93% 30.06 in 10.0 mi Calm Calm - N/A   Clear
2:53 AM 37.0 °F - 36.0 °F 96% 30.05 in 10.0 mi Calm Calm - N/A   Clear
3:53 AM 36.0 °F - 34.0 °F 93% 30.05 in 8.0 mi Calm Calm - N/A   Clear
4:53 AM 35.1 °F - 35.1 °F 100% 30.05 in 2.5 mi Calm Calm - N/A   Clear
5:02 AM 35.6 °F - 33.8 °F 93% 30.04 in 5.0 mi Calm Calm - N/A   Clear
5:53 AM 36.0 °F - 35.1 °F 97% 30.06 in 9.0 mi Calm Calm - N/A   Clear
6:53 AM 35.1 °F 31.0 °F 34.0 °F 96% 30.06 in 6.0 mi East 4.6 mph - 0.01 in   Clear
7:53 AM 37.0 °F - 35.1 °F 93% 30.06 in 5.0 mi Calm Calm - N/A   Clear
8:53 AM 42.1 °F - 39.0 °F 89% 30.07 in 10.0 mi Calm Calm - N/A   Clear
9:53 AM 46.0 °F - 42.1 °F 86% 30.08 in 10.0 mi Calm Calm - N/A   Clear
10:53 AM 53.1 °F - 45.0 °F 74% 30.05 in 10.0 mi NW 3.5 mph - N/A   Clear
11:53 AM 57.9 °F - 46.9 °F 67% 30.02 in 10.0 mi Calm Calm - N/A   Clear
12:53 PM 63.0 °F - 46.0 °F 54% 30.00 in 10.0 mi ESE 9.2 mph - N/A   Clear
1:53 PM 64.0 °F - 46.0 °F 52% 29.98 in 10.0 mi East 9.2 mph - N/A   Clear
2:53 PM 62.1 °F - 46.0 °F 56% 29.98 in 10.0 mi East 10.4 mph - N/A   Clear
3:53 PM 60.1 °F - 45.0 °F 57% 29.98 in 10.0 mi East 11.5 mph - N/A   Clear
4:53 PM 55.9 °F - 46.0 °F 69% 29.99 in 10.0 mi East 8.1 mph - N/A   Clear
5:53 PM 54.0 °F - 45.0 °F 72% 30.01 in 10.0 mi East 8.1 mph - N/A   Clear
6:53 PM 52.0 °F - 45.0 °F 77% 30.01 in 10.0 mi East 10.4 mph - N/A   Clear
7:53 PM 50.0 °F - 45.0 °F 83% 30.04 in 10.0 mi East 8.1 mph - N/A   Clear
8:53 PM 48.9 °F - 44.1 °F 83% 30.05 in 8.0 mi East 8.1 mph - N/A   Clear
9:53 PM 46.0 °F 43.1 °F 43.0 °F 89% 30.06 in 7.0 mi East 5.8 mph - N/A   Clear
10:53 PM 45.0 °F - 41.0 °F 86% 30.06 in 10.0 mi Calm Calm - N/A   Clear
11:53 PM 42.1 °F - 39.0 °F 89% 30.06 in 7.0 mi Calm Calm - N/A   Clear